Theta_e
359 359 354 351 351 349 348 344 340 332 335 342 338 344 347 345 345 342 343 339 339 338 337 337 337 338 339 340 340 341 340 341 341 341 340 340 340 340
358 355 354 348 347 350 347 346 344 339 332 341 342 343 343 346 347 347 346 343 340 340 338 337 337 338 338 338 338 338 338 338 337 337 337 337 337 337
357 356 353 353 351 349 347 347 345 343 336 339 347 350 347 344 342 346 345 345 341 338 337 338 337 336 336 336 336 336 335 334 333 332 332 332 333 333
357 354 354 351 352 353 353 346 344 347 342 340 343 346 347 347 348 348 344 340 343 340 337 335 335 334 333 333 334 333 331 329 328 327 327 328 329 330
361 357 355 353 350 346 348 347 346 347 348 340 340 345 347 349 346 347 348 346 346 339 333 333 333 332 331 330 328 327 324 323 323 322 322 324 326 327
363 361 359 355 350 351 347 345 347 345 342 342 340 339 344 345 344 340 340 343 341 341 337 334 333 332 331 327 327 326 322 320 319 319 320 321 322 323
361 363 362 359 350 348 348 349 344 343 342 337 335 338 338 340 338 340 336 336 340 342 338 335 335 334 332 330 332 332 327 324 321 319 318 317 317 318
360 362 363 353 350 341 340 341 346 342 338 335 335 335 338 341 345 339 337 335 331 342 337 337 341 339 338 339 336 334 330 326 322 320 318 318 317 317
361 361 361 361 352 354 338 337 337 338 340 342 341 343 346 346 346 342 341 340 336 340 338 332 339 334 339 329 328 329 329 325 321 319 318 317 316 315
362 362 361 361 359 357 352 345 344 344 342 344 348 346 350 350 349 347 344 343 343 342 341 329 336 333 332 328 326 326 324 325 321 318 316 314 312 310
361 363 362 361 349 335 355 349 345 345 336 331 334 337 335 336 345 344 341 337 333 334 339 334 333 330 327 328 324 323 320 320 317 316 316 314 311 309
358 361 340 355 338 327 353 353 347 345 346 343 338 331 332 333 333 344 341 334 332 331 338 332 330 326 318 324 325 319 318 316 313 312 312 312 310 310
354 356 359 331 327 321 331 355 350 351 343 345 341 339 339 339 338 339 343 339 333 332 333 334 326 323 320 317 321 323 321 318 316 314 309 308 308 310
356 356 356 327 320 319 324 336 328 335 351 345 339 337 336 337 340 339 339 341 341 335 327 331 324 320 317 315 314 317 317 318 316 316 317 314 308 308
361 350 323 317 317 320 322 327 325 348 351 345 340 338 338 340 340 340 338 340 337 334 334 331 325 323 319 315 313 312 310 313 317 316 314 315 314 315
340 347 345 329 326 332 332 329 348 352 350 346 343 342 342 340 338 338 335 333 328 327 332 331 329 324 317 317 314 311 313 309 314 316 315 313 314 313
345 355 353 351 351 342 339 342 348 350 347 346 342 339 337 336 334 334 330 327 323 322 323 328 329 325 321 317 312 311 311 314 316 315 312 310 312 313
339 350 351 347 343 343 339 342 346 343 345 343 339 336 334 332 330 329 329 326 322 321 322 323 322 320 318 318 319 311 314 314 314 313 312 309 306 309
347 347 349 346 342 342 340 341 340 342 343 338 336 335 334 332 327 327 325 323 322 323 323 323 321 316 312 307 314 316 314 311 310 311 313 309 306 306
345 346 345 346 342 339 338 339 338 338 339 337 335 334 332 329 326 325 323 322 321 323 320 320 317 314 310 308 310 313 309 311 311 312 309 309 309 311
336 341 346 345 343 340 339 339 337 337 337 336 335 333 331 328 326 325 324 317 319 320 316 316 316 318 317 314 309 307 310 307 314 311 310 307 303 302
328 331 332 335 340 340 339 337 336 334 334 335 334 331 329 328 326 324 323 317 319 318 317 317 314 314 314 310 307 308 311 314 308 309 311 311 303 297
337 335 335 336 336 335 337 337 336 334 333 333 332 331 330 327 325 324 323 320 316 315 315 313 312 315 311 310 309 309 310 310 311 309 310 311 311 310
Wind_Speed
7 5 4 4 3 4 3 2 2 1 4 2 3 5 4 6 11 10 8 13 13 12 11 11 11 9 11 10 10 8 8 7 7 7 7 8 10 9
6 8 6 4 5 4 3 3 2 2 2 2 5 5 4 4 9 6 4 12 13 12 14 14 11 10 11 9 8 7 6 4 5 5 6 7 9 9
9 7 10 7 4 3 4 3 3 3 2 4 2 4 4 7 4 3 4 4 7 16 15 11 9 11 10 8 7 7 6 5 3 3 3 5 6 8
13 10 10 8 7 5 2 5 4 3 4 5 2 2 3 5 6 6 4 4 4 11 13 12 12 11 11 8 7 8 7 5 5 3 3 3 4 5
12 12 9 9 8 7 6 5 5 3 3 3 3 1 3 5 5 4 4 6 6 11 16 16 12 12 11 10 11 11 8 8 6 5 4 5 4 4
13 13 14 13 12 11 9 8 5 5 6 4 4 4 4 5 7 8 5 5 5 5 9 9 14 13 14 13 13 10 8 7 7 6 6 6 6 6
14 13 14 16 17 16 10 10 9 7 5 7 5 4 4 3 7 5 4 4 6 5 4 7 5 4 7 11 11 11 10 8 7 7 6 7 6 5
16 16 15 17 18 21 18 17 13 11 11 8 6 7 8 6 4 5 5 4 3 2 2 2 1 3 5 3 10 9 10 10 8 6 6 7 8 6
18 16 15 14 16 16 19 18 13 16 16 12 10 8 5 7 6 5 4 3 3 3 3 2 3 3 2 4 10 11 12 10 9 9 9 9 8 7
20 20 18 18 17 19 17 18 19 15 15 11 12 10 5 5 5 6 5 3 1 1 3 3 4 3 2 6 13 13 12 13 13 12 10 10 10 9
20 20 20 20 21 22 19 19 19 18 13 15 10 7 8 6 7 5 5 5 3 3 4 5 4 4 2 4 7 15 16 15 13 12 12 12 12 6
18 19 21 23 20 21 21 17 16 16 15 13 11 6 7 6 8 6 7 5 4 4 5 5 4 4 1 3 4 6 4 9 13 12 11 11 9 4
16 16 17 23 20 20 24 19 21 14 17 14 10 8 7 7 6 6 7 5 7 7 3 4 3 3 3 1 2 2 4 3 5 6 13 14 10 10
16 13 14 16 20 20 20 21 17 17 12 12 10 10 10 10 8 5 6 4 3 6 6 4 3 4 2 1 2 2 2 2 2 3 2 1 8 8
15 13 6 10 22 22 26 23 18 12 12 12 12 12 12 8 8 8 9 7 4 4 7 5 5 3 3 3 3 3 1 3 3 2 1 2 1 1
21 15 14 6 11 11 15 16 17 15 14 13 11 8 6 8 8 7 7 8 6 4 5 7 6 5 3 4 3 3 2 1 4 3 2 0 2 2
15 13 14 14 14 8 9 14 16 15 14 10 11 8 7 7 6 7 6 5 4 7 6 6 6 6 5 6 3 4 4 4 4 2 2 2 3 2
9 13 14 13 13 13 12 13 14 15 13 11 9 8 7 8 9 7 7 8 8 7 6 8 7 3 2 5 8 5 4 3 1 1 1 1 1 2
8 11 13 13 13 13 13 15 14 13 14 11 11 9 12 11 13 11 12 10 8 9 6 7 11 8 8 7 4 17 5 2 1 2 2 2 1 3
10 12 13 13 12 13 14 14 13 12 13 13 13 11 12 13 13 10 10 10 9 5 5 4 6 7 6 5 3 1 10 4 4 4 2 2 4 6
7 10 10 11 13 15 16 16 18 17 15 14 11 11 11 11 12 10 11 12 10 6 5 5 5 10 5 5 3 2 5 15 8 6 4 3 2 1
8 10 10 11 11 13 15 17 16 13 17 13 12 14 12 10 12 14 11 8 8 6 5 4 6 5 3 4 4 5 4 3 9 11 8 5 4 3
6 5 7 8 4 5 12 15 11 19 13 12 12 13 13 12 11 10 10 8 8 5 5 5 5 4 5 5 6 5 4 4 4 4 4 13 13 11
Wind_Direction
206 211 219 261 213 197 195 226 200 273 238 222 192 182 154 131 157 178 186 199 196 200 205 217 228 232 242 249 252 264 281 302 320 316 317 319 319 319
206 198 206 233 261 197 202 199 205 224 297 130 243 150 147 111 174 176 194 177 190 199 209 215 219 223 236 245 252 260 256 258 277 302 315 319 317 318
196 207 197 209 239 232 187 214 202 184 229 294 192 131 118 124 156 172 152 173 189 211 211 209 210 220 228 233 234 234 229 240 262 268 301 298 301 301
205 206 195 199 221 244 272 198 198 219 187 232 228 153 161 170 169 176 206 244 233 216 180 199 209 213 219 210 213 222 229 223 222 239 261 271 281 297
204 207 211 191 203 221 215 226 189 183 208 196 252 244 176 169 181 187 199 218 262 178 193 201 205 210 222 211 215 226 226 230 235 262 271 274 275 289
208 209 206 206 202 203 216 208 220 191 193 204 209 227 219 191 178 184 210 210 228 224 202 197 206 209 222 218 222 221 221 222 234 244 264 267 273 293
228 210 212 210 205 205 199 213 201 205 198 203 216 214 219 212 188 193 183 197 211 224 203 207 210 191 233 238 240 212 201 205 226 230 250 271 268 251
219 224 217 210 207 200 203 200 198 195 211 211 209 204 208 211 171 178 177 186 196 149 202 243 213 229 222 182 204 178 183 191 209 224 248 259 259 271
218 221 223 220 205 205 207 206 208 205 205 203 215 213 182 194 168 164 178 152 180 175 123 257 280 287 255 140 147 153 169 175 194 208 213 231 236 241
218 216 217 223 211 206 201 206 212 214 216 208 214 217 194 187 163 161 152 159 125 213 170 214 236 249 230 166 165 158 167 190 202 204 210 230 238 236
222 219 217 219 217 196 205 206 212 217 204 218 224 200 178 167 154 142 174 163 198 223 218 193 223 211 178 165 188 177 189 199 202 211 217 226 235 229
230 228 217 222 212 189 203 209 211 213 209 206 214 185 181 176 193 192 171 183 144 238 221 173 198 162 208 239 139 198 209 223 220 224 235 237 231 201
228 224 227 215 207 189 200 209 210 195 204 208 205 196 172 170 193 208 214 201 162 209 189 171 160 157 168 222 272 197 188 165 199 212 232 244 230 202
245 240 239 209 203 197 192 208 186 191 196 194 177 184 187 191 186 215 253 206 251 157 158 143 148 139 124 252 249 305 328 265 216 233 218 259 221 238
242 248 11 229 197 196 199 200 186 198 199 192 193 189 187 195 187 176 170 198 181 148 149 174 149 135 135 211 240 267 293 290 272 229 209 56 17 313
236 243 245 205 198 254 201 196 199 202 200 192 193 177 172 176 185 169 158 170 168 174 178 174 164 140 161 225 214 253 241 256 286 268 106 286 352 341
216 229 233 235 236 217 202 211 204 200 197 187 181 170 169 174 172 167 146 167 175 189 189 188 166 161 176 207 231 229 237 242 245 180 70 345 285 344
203 223 224 218 218 213 207 206 216 204 194 191 159 144 179 173 176 167 170 181 182 196 203 178 160 155 225 276 203 212 230 215 206 230 180 213 352 345
221 227 229 218 220 219 212 202 197 201 184 173 156 167 194 190 172 179 189 167 194 200 199 163 173 177 201 210 274 192 184 156 303 281 219 119 224 275
250 237 231 225 213 209 200 204 199 189 184 179 173 174 204 170 171 172 178 186 191 197 182 170 159 175 170 196 188 122 189 183 212 230 221 221 228 254
289 278 278 259 232 210 207 201 197 184 183 172 175 156 178 168 166 173 183 184 180 183 181 182 183 166 156 114 120 216 246 215 201 189 210 211 226 257
274 269 264 268 265 249 225 206 182 188 157 157 175 150 159 163 176 185 185 167 181 177 169 129 131 126 136 165 195 221 244 173 224 233 220 175 166 235
331 309 286 270 256 277 252 245 194 134 127 156 165 154 167 180 182 177 183 164 164 161 145 136 161 161 174 188 201 214 233 230 211 182 232 216 220 224